Buies Creek, NC

7:50 AM EST on December 09, 2016 (GMT -0500)
Harnett County

Weather History for KHRJ - April, 2014

Change the Weather History Date:

Sunday, April 27, 2014

  Actual Average Record
Temperature  
Mean Temperature 68 °F -  
Max Temperature 85 °F 77 °F 92 °F (1966)
Min Temperature 51 °F 50 °F 35 °F (1977)
Cooling Degree Days 3    
Growing Degree Days 18 (Base 50)    
Moisture  
Dew Point 48 °F    
Average Humidity 52    
Maximum Humidity 94    
Minimum Humidity 25    
Precipitation  
Precipitation 0.00 in - - ()
Sea Level Pressure  
Sea Level Pressure 29.97 in    
Wind  
Wind Speed 1 mph (ESE)    
Max Wind Speed 9 mph    
Max Gust Speed -    
Visibility 10 miles    
Events      
Averages and records for this station are not official NWS values.
T = Trace of Precipitation, MM = Missing Value Source: NWS Daily Summary

Daily Weather History Graph

Daily Weather History Graph

Search for Another Location

Airport or City:

Trip Planner

Search our weather history database for the weather conditions in past years. The results will help you decide how hot, cold, wet, or windy it might be!

Date:

Astronomy

Apr. 27, 2014 Rise Set
Actual Time 6:27 AM EDT 7:57 PM EDT
Civil Twilight 6:00 AM EDT 8:24 PM EDT
Nautical Twilight 5:28 AM EDT 8:57 PM EDT
Astronomical Twilight 4:54 AM EDT 9:31 PM EDT
Moon 5:22 AM EDT (4/27) 6:32 PM EDT (4/27)
Length of Visible Light 14h 23m
Length of Day
13h 29m
Waning Crescent, 3% of the Moon is Illuminated
Apr 27
Waning Crescent
Apr 29
New
May 6
First Quarter
May 14
Full
May 21
Last Quarter

Hourly Weather History & Observations

Time (EDT) Temp. Dew Point Humidity Pressure Visibility Wind Dir Wind Speed Gust Speed Precip Events Conditions
12:15 AM 62.1 °F 44.4 °F 52% 29.96 in 10.0 mi Calm Calm - N/A   Clear
12:35 AM 61.7 °F 44.1 °F 52% 29.96 in 10.0 mi Calm Calm - N/A   Clear
12:55 AM 61.3 °F 43.7 °F 52% 29.96 in 10.0 mi Calm Calm - N/A   Clear
1:15 AM 61.0 °F 44.1 °F 54% 29.96 in 10.0 mi Calm Calm - N/A   Clear
1:35 AM 59.9 °F 44.1 °F 56% 29.96 in 10.0 mi Calm Calm - N/A   Clear
1:55 AM 59.2 °F 44.4 °F 58% 29.95 in 10.0 mi Calm Calm - N/A   Clear
2:15 AM 59.0 °F 44.2 °F 58% 29.95 in 10.0 mi Calm Calm - N/A   Clear
2:35 AM 56.7 °F 45.3 °F 66% 29.95 in 10.0 mi Calm Calm - N/A   Clear
2:55 AM 57.2 °F 44.8 °F 63% 29.95 in 10.0 mi Calm Calm - N/A   Clear
3:15 AM 56.5 °F 45.0 °F 65% 29.94 in 10.0 mi Calm Calm - N/A   Clear
3:35 AM 55.9 °F 46.6 °F 71% 29.94 in 10.0 mi Calm Calm - N/A   Clear
3:55 AM 55.8 °F 46.2 °F 70% 29.95 in 10.0 mi Calm Calm - N/A   Clear
4:15 AM 54.9 °F 46.6 °F 74% 29.95 in 10.0 mi South 3.5 mph - N/A   Clear
4:35 AM 54.1 °F 47.8 °F 79% 29.95 in 10.0 mi Calm Calm - N/A   Clear
4:55 AM 54.0 °F 47.8 °F 80% 29.95 in 10.0 mi Calm Calm - N/A   Clear
5:15 AM 54.1 °F 48.4 °F 81% 29.96 in 10.0 mi Calm Calm - N/A   Clear
5:35 AM 54.3 °F 46.8 °F 76% 29.96 in 10.0 mi Calm Calm - N/A   Clear
5:55 AM 52.9 °F 45.9 °F 77% 29.97 in 10.0 mi Calm Calm - N/A   Clear
6:15 AM 52.0 °F 46.2 °F 81% 29.97 in 10.0 mi Calm Calm - N/A   Clear
6:35 AM 51.4 °F 46.4 °F 83% 29.98 in 10.0 mi Calm Calm - N/A   Clear
6:55 AM 52.2 °F 47.3 °F 83% 29.99 in 10.0 mi SSW 3.5 mph - N/A   Clear
7:15 AM 51.6 °F 50.0 °F 94% 29.99 in 10.0 mi Calm Calm - N/A   Clear
7:35 AM 53.4 °F 51.1 °F 92% 30.00 in 10.0 mi Calm Calm - N/A   Clear
7:55 AM 54.7 °F 51.4 °F 89% 30.00 in 10.0 mi South 3.5 mph - N/A   Clear
8:15 AM 57.6 °F 51.8 °F 81% 30.00 in 10.0 mi Calm Calm - N/A   Clear
8:35 AM 60.8 °F 51.3 °F 71% 30.02 in 10.0 mi North 3.5 mph - N/A   Clear
8:55 AM 61.9 °F 50.7 °F 67% 30.02 in 10.0 mi NNE 3.5 mph - N/A   Clear
9:15 AM 63.7 °F 50.0 °F 61% 30.02 in 10.0 mi North 3.5 mph - N/A   Clear
9:35 AM 65.3 °F 48.7 °F 55% 30.02 in 10.0 mi Calm Calm - N/A   Clear
10:15 AM 69.6 °F 49.3 °F 48% 30.02 in 10.0 mi NNE 3.5 mph - N/A   Clear
10:35 AM 70.9 °F 48.4 °F 45% 30.02 in 10.0 mi Calm Calm - N/A   Clear
10:55 AM 72.3 °F 47.5 °F 41% 30.02 in 10.0 mi Calm Calm - N/A   Clear
11:15 AM 74.3 °F 48.0 °F 39% 30.02 in 10.0 mi Calm Calm - N/A   Clear
11:35 AM 74.5 °F 47.7 °F 39% 30.02 in 10.0 mi Calm Calm - N/A   Clear
12:15 PM 75.9 °F 46.9 °F 36% 30.02 in 10.0 mi Calm Calm - N/A   Clear
12:35 PM 76.8 °F 46.9 °F 35% 30.00 in 10.0 mi Calm Calm - N/A   Clear
12:55 PM 77.9 °F 46.9 °F 33% 29.99 in 10.0 mi Calm Calm - N/A   Clear
1:15 PM 79.0 °F 48.7 °F 35% 29.98 in 10.0 mi SW 3.5 mph - N/A   Clear
1:35 PM 79.2 °F 47.3 °F 33% 29.98 in 10.0 mi Calm Calm - N/A   Clear
1:55 PM 81.5 °F 48.4 °F 31% 29.97 in 10.0 mi Calm Calm - N/A   Clear
2:15 PM 80.8 °F 45.9 °F 29% 29.97 in 10.0 mi Calm Calm - N/A   Clear
2:35 PM 81.0 °F 43.9 °F 27% 29.97 in 10.0 mi Calm Calm - N/A   Clear
2:55 PM 81.7 °F 43.5 °F 26% 29.96 in 10.0 mi Calm Calm - N/A   Clear
3:15 PM 82.0 °F 46.0 °F 28% 29.95 in 10.0 mi South 5.8 mph - N/A   Clear
3:35 PM 83.1 °F 47.7 °F 29% 29.94 in 10.0 mi Calm Calm - N/A   Clear
3:55 PM 82.9 °F 46.6 °F 28% 29.93 in 10.0 mi SE 4.6 mph - N/A   Clear
4:15 PM 83.5 °F 46.9 °F 28% 29.92 in 10.0 mi ESE 3.5 mph - N/A   Clear
4:35 PM 83.3 °F 46.8 °F 28% 29.92 in 10.0 mi South 3.5 mph - N/A   Clear
4:55 PM 83.3 °F 45.7 °F 27% 29.92 in 10.0 mi East 3.5 mph - N/A   Clear
5:15 PM 85.3 °F 46.9 °F 26% 29.92 in 10.0 mi Calm Calm - N/A   Clear
5:35 PM 85.5 °F 47.3 °F 26% 29.92 in 10.0 mi East 4.6 mph - N/A   Clear
5:55 PM 85.5 °F 46.2 °F 25% 29.92 in 10.0 mi East 4.6 mph - N/A   Clear
6:15 PM 83.8 °F 47.5 °F 28% 29.92 in 10.0 mi East 4.6 mph - N/A   Clear
6:35 PM 82.8 °F 47.3 °F 29% 29.92 in 10.0 mi East 3.5 mph - N/A   Clear
6:55 PM 81.7 °F 47.1 °F 30% 29.93 in 10.0 mi Calm Calm - N/A   Clear
7:15 PM 80.4 °F 50.0 °F 34% 29.93 in 10.0 mi SSW 4.6 mph - N/A   Clear
7:35 PM 78.6 °F 50.7 °F 38% 29.94 in 10.0 mi SE 4.6 mph - N/A   Clear
7:55 PM 79.2 °F 48.2 °F 34% 29.94 in 10.0 mi East 4.6 mph - N/A   Clear
8:15 PM 77.5 °F 50.2 °F 38% 29.94 in 10.0 mi East 4.6 mph - N/A   Clear
8:35 PM 76.3 °F 51.1 °F 41% 29.94 in 10.0 mi East 3.5 mph - N/A   Clear
8:55 PM 75.4 °F 51.3 °F 43% 29.95 in 10.0 mi Calm Calm - N/A   Clear
9:15 PM 73.9 °F 52.5 °F 47% 29.95 in 10.0 mi East 3.5 mph - N/A   Clear
9:55 PM 73.4 °F 51.4 °F 46% 29.97 in 10.0 mi East 8.1 mph - N/A   Clear
10:15 PM 72.9 °F 54.3 °F 52% 29.97 in 10.0 mi East 9.2 mph - N/A   Clear
10:35 PM 72.0 °F 55.8 °F 57% 29.97 in 10.0 mi ESE 8.1 mph - N/A   Clear
10:55 PM 70.9 °F 56.7 °F 61% 29.98 in 10.0 mi East 8.1 mph - N/A   Clear
11:15 PM 70.3 °F 57.2 °F 63% 29.97 in 10.0 mi East 5.8 mph - N/A   Clear
11:35 PM 69.1 °F 57.6 °F 67% 29.98 in 10.0 mi East 5.8 mph - N/A   Clear
11:55 PM 68.2 °F 57.7 °F 69% 29.99 in 10.0 mi East 8.1 mph - N/A   Clear